Flag for Turkey Weather past 2 weeks in Samsun, Turkey

Now
82 °F

Passing clouds.


Feels Like: 85 °F
Forecast: 64 / 88 °F
Wind: 8 mph from North

Location: Samsun / Carsamba

Current Time: Jul 22, 2014 at 3:21:13 PM

Latest Report: Jul 22, 2014 at 2:50 PM


Visibility: N/A

Pressure: 29.83 "Hg

Humidity: 62%

Dew point: 68 °F

Location of SamsunLocation

Historic Weather in Samsun — Graph

°F

Samsun temperature yesterday

Maximum temperature yesterday: 77 °F (at 9:50 AM)
Minimum temperature yesterday: 66 °F (at 4:50 AM)
Average temperature yesterday: 73 °F

Past Weeks' High & Low Weather Summary

 TemperatureHumidityPressure
High88 °F (Jul 11, 4:50 PM)100% (Jul 10, 4:50 AM)29.98 "Hg (Jul 10, 4:50 AM)
Low59 °F (Jul 9, 5:50 AM)42% (Jul 8, 10:50 AM)29.62 "Hg (Jul 12, 3:50 AM)
Average75 °F77%29.79 "Hg
* Reported Jul 7 1:50 PM — Jul 22 1:50 PM, Samsun, Weather by CustomWeather, © 2014

Note: Actual official high and low records may vary slightly from our data, if they occured in-between our weather recording intervals... More about our weather records

Advertising

Samsun weather history for previous 24 hours

 ConditionsComfort  
Time TempWeatherWind HumidityBarometerVisibility
1:50 PM
Jul 22
82 °FPassing clouds.9 mph62%29.83 "HgN/A
12:50 PM82 °FPassing clouds.7 mph51%29.86 "HgN/A
11:50 AM82 °FPassing clouds.7 mph62%29.83 "HgN/A
10:50 AM81 °FScattered clouds.8 mph66%29.86 "HgN/A
9:50 AM79 °FScattered clouds.7 mph65%29.83 "HgN/A
8:50 AM79 °FScattered clouds.5 mph61%29.83 "HgN/A
7:50 AM77 °FScattered clouds.3 mph69%29.83 "HgN/A
6:50 AM73 °FScattered clouds.3 mph78%29.83 "HgN/A
5:50 AM72 °FPartly cloudy.7 mph78%29.83 "HgN/A
4:50 AM73 °FPartly cloudy.10 mph78%29.83 "HgN/A
3:50 AM73 °FPartly cloudy.12 mph78%29.83 "HgN/A
2:50 AM73 °FPassing clouds.12 mph78%29.80 "HgN/A
1:50 AM75 °FPartly cloudy.12 mph74%29.80 "HgN/A
12:50 AM75 °FPassing clouds.18 mph78%29.80 "HgN/A
11:50 PM
Jul 21
75 °FSprinkles. Passing clouds.18 mph83%29.80 "HgN/A
10:50 PM75 °FRain showers. Passing clouds.17 mph89%29.80 "Hg5 mi
9:50 PM75 °FThunderstorms. Partly cloudy.22 mph94%29.80 "Hg5 mi
8:50 PM73 °FThunderstorms. Partly sunny.18 mph89%29.80 "Hg5 mi
7:50 PM75 °FBroken clouds.16 mph83%29.80 "HgN/A
6:50 PM73 °FThunderstorms. Partly sunny.13 mph89%29.77 "Hg4 mi
5:50 PM72 °FThunderstorms. Mostly cloudy.16 mph94%29.77 "Hg4 mi
4:50 PM75 °FPartly sunny.18 mph83%29.77 "HgN/A
3:50 PM75 °FPartly sunny.15 mph78%29.77 "HgN/A
Weather by CustomWeather, © 2014

See weather overviewHow to use our weather pages